This is the latest recevied weather packets stored in our database for station/object G4WLC-1. If no packets are shown the sender has not sent any weather packets the latest 10 day(s).
| Time | Temp. | Humidity | Pressure | Rain* | Wind** | Luminosity | Snow |
|---|---|---|---|---|---|---|---|
| 1777393103 | 13.89° C | 71% | 1024.8 hPa | 0 mm | - | - | - |
| 1777392803 | 13.89° C | 69% | 1024.7 hPa | 0 mm | - | - | - |
| 1777392503 | 13.89° C | 69% | 1024.7 hPa | 0 mm | - | - | - |
| 1777392203 | 13.89° C | 70% | 1024.7 hPa | 0 mm | - | - | - |
| 1777391903 | 13.89° C | 70% | 1024.8 hPa | 0 mm | - | - | - |
| 1777391603 | 13.89° C | 69% | 1024.8 hPa | 0 mm | - | - | - |
| 1777391303 | 13.89° C | 70% | 1024.6 hPa | 0 mm | - | - | - |
| 1777391003 | 13.89° C | 69% | 1024.8 hPa | 0 mm | - | - | - |
| 1777390703 | 13.89° C | 72% | 1024.6 hPa | 0 mm | - | - | - |
| 1777390403 | 13.33° C | 71% | 1024.9 hPa | 0 mm | - | - | - |
| 1777390103 | 13.33° C | 72% | 1024.8 hPa | 0 mm | - | - | - |
| 1777389803 | 12.78° C | 74% | 1025 hPa | 0 mm | - | - | - |
| 1777389503 | 12.22° C | 74% | 1025 hPa | 0 mm | - | - | - |
| 1777389203 | 12.22° C | 73% | 1025.1 hPa | 0 mm | - | - | - |
| 1777388903 | 12.22° C | 73% | 1025.1 hPa | 0 mm | - | - | - |
| 1777388603 | 12.22° C | 74% | 1025.1 hPa | 0 mm | - | - | - |
| 1777388303 | 12.22° C | 77% | 1025.1 hPa | 0 mm | - | - | - |
| 1777388003 | 11.67° C | 76% | 1025.2 hPa | 0 mm | - | - | - |
| 1777387703 | 11.67° C | 75% | 1025.2 hPa | 0 mm | - | - | - |
| 1777387403 | 11.67° C | 74% | 1025.3 hPa | 0 mm | - | - | - |
| 1777387103 | 11.67° C | 76% | 1025.4 hPa | 0 mm | - | - | - |
| 1777386803 | 11.11° C | 77% | 1025.2 hPa | 0 mm | - | - | - |
| 1777386503 | 11.11° C | 77% | 1025.4 hPa | 0 mm | - | - | - |
| 1777386203 | 11.11° C | 76% | 1025.4 hPa | 0 mm | - | - | - |
| 1777385903 | 11.11° C | 78% | 1025.6 hPa | 0 mm | - | - | - |
* Rain latest hour (hover to see other rain measurements)
** Current wind speed in m/s (hover to see current wind gust speed)